Flag for Finland Weather past 2 weeks in Lahti, Finland

Now
48 °F

Broken clouds.


Feels Like: 43 °F
Forecast: 37 / 51 °F
Wind: 12 mph from Northwest

Location: Utti

Current Time: Apr 21, 2015 at 3:38:06 PM

Latest Report: Apr 21, 2015 at 2:50 PM


Visibility: N/A

Pressure: 30.07 "Hg

Humidity: 54%

Dew point: 32 °F

Location of LahtiLocation

Historic Weather in Lahti — Graph

°F

Lahti temperature yesterday

Maximum temperature yesterday: 48 °F (at 2:50 PM)
Minimum temperature yesterday: 36 °F (at 4:20 AM)
Average temperature yesterday: 42 °F

Past Weeks' High & Low Weather Summary

 TemperatureHumidityPressure
High57 °F (Apr 12, 12:50 PM)100% (Apr 8, 1:20 AM)30.24 "Hg (Apr 8, 1:20 AM)
Low30 °F (Apr 14, 3:50 AM)28% (Apr 11, 12:50 PM)29.18 "Hg (Apr 16, 4:20 AM)
Average40 °F68%29.73 "Hg
* Reported Apr 6 2:20 PM — Apr 21 2:20 PM, Lahti, Weather by CustomWeather, © 2015

Note: Actual official high and low records may vary slightly from our data, if they occured in-between our weather recording intervals... More about our weather records

Advertising

Lahti weather history for previous 24 hours

 ConditionsComfort  
Time TempWeatherWind HumidityBarometerVisibility
2:20 PM
Tue, Apr 21
46 °FBroken clouds.10 mph57%30.07 "HgN/A
1:50 PM48 °FBroken clouds.10 mph54%30.07 "HgN/A
1:20 PM48 °FBroken clouds.12 mph54%30.07 "HgN/A
12:50 PM48 °FPartly sunny.12 mph50%30.07 "HgN/A
12:20 PM46 °FPartly sunny.13 mph50%30.07 "HgN/A
11:50 AM46 °FScattered clouds.13 mph46%30.07 "HgN/A
11:20 AM45 °FPassing clouds.8 mph49%30.07 "HgN/A
10:50 AM45 °FScattered clouds.8 mph49%30.07 "HgN/A
10:20 AM43 °FScattered clouds.8 mph49%30.07 "HgN/A
9:50 AM43 °FPassing clouds.9 mph46%30.04 "HgN/A
9:20 AM43 °FPassing clouds.9 mph46%30.07 "HgN/A
8:50 AM41 °FPassing clouds.8 mph53%30.04 "HgN/A
8:20 AM39 °FSunny.7 mph56%30.04 "Hg10 mi
7:50 AM37 °FPassing clouds.7 mph60%30.04 "HgN/A
7:20 AM36 °FPassing clouds.6 mph65%30.04 "HgN/A
6:50 AM34 °FSunny.7 mph70%30.04 "Hg10 mi
6:20 AM32 °FClear.6 mph75%30.01 "Hg10 mi
5:50 AM32 °FClear.5 mph69%30.01 "Hg10 mi
5:20 AM32 °FClear.5 mph69%30.01 "Hg10 mi
4:50 AM34 °FClear.7 mph65%30.01 "Hg10 mi
4:20 AM34 °FPassing clouds.7 mph65%29.98 "HgN/A
3:50 AM34 °FClear.6 mph65%29.98 "Hg10 mi
3:20 AM36 °FClear.5 mph60%29.98 "Hg10 mi
2:50 AM36 °FClear.5 mph60%29.98 "Hg10 mi
2:20 AM37 °FPassing clouds.6 mph56%29.98 "HgN/A
1:50 AM37 °FPassing clouds.7 mph56%29.98 "HgN/A
1:20 AM39 °FPassing clouds.7 mph52%29.98 "HgN/A
12:50 AM39 °FPassing clouds.8 mph52%29.98 "HgN/A
12:20 AM39 °FPassing clouds.9 mph52%29.95 "HgN/A
11:50 PM
Mon, Apr 20
41 °FPassing clouds.8 mph53%29.95 "HgN/A
11:20 PM41 °FPassing clouds.7 mph53%29.95 "HgN/A
10:50 PM41 °FClear.6 mph53%29.95 "Hg10 mi
10:20 PM43 °FPassing clouds.6 mph53%29.95 "HgN/A
9:50 PM43 °FClear.8 mph49%29.95 "Hg10 mi
9:20 PM43 °FPassing clouds.7 mph49%29.95 "HgN/A
8:50 PM43 °FPassing clouds.6 mph53%29.95 "HgN/A
8:20 PM45 °FPassing clouds.7 mph46%29.95 "HgN/A
7:50 PM45 °FPassing clouds.9 mph46%29.95 "HgN/A
7:20 PM46 °FPassing clouds.9 mph43%29.92 "HgN/A
6:50 PM46 °FPassing clouds.13 mph40%29.92 "HgN/A
6:20 PM46 °FPassing clouds.9 mph40%29.92 "HgN/A
5:50 PM46 °FPassing clouds.12 mph40%29.95 "HgN/A
5:20 PM48 °FPassing clouds.16 mph34%29.92 "HgN/A
4:50 PM48 °FPassing clouds.14 mph37%29.92 "HgN/A
4:20 PM48 °FPassing clouds.16 mph34%29.92 "HgN/A
3:50 PM48 °FPassing clouds.15 mph37%29.92 "HgN/A
3:20 PM48 °FPassing clouds.12 mph37%29.95 "HgN/A
Weather by CustomWeather, © 2015

See weather overviewHow to use our weather pages